Regional Weather Roundup
Issued by NWS

Home | Current Version | Previous Version | Graphics & Text | Print | Product List | Glossary On
Versions: 1 2 3 4 5 6 7 8 9 10 11 12 13 14 15 16 17 18 19 20 21 22 23 24 25 26 27 28 29 30 31 32 33 34 35 36 37 38 39 40 41 42 43 44 45 46 47 48 49 50
000
ASUS43 KMKX 230611
RWRWI

WISCONSIN REGIONAL WEATHER ROUNDUP
NATIONAL WEATHER SERVICE MILWAUKEE/SULLIVAN WI
100 AM CDT MON OCT 23 2017

NOTE: "FAIR" INDICATES FEW OR NO CLOUDS BELOW 12,000 FEET WITH NO
SIGNIFICANT WEATHER AND/OR OBSTRUCTIONS TO VISIBILITY.

WIZ001-002-006>008-014>016-023>028-230700-
NORTHWEST WISCONSIN

CITY           SKY/WX    TMP DP  RH WIND       PRES   REMARKS
SUPERIOR ARPT  CLOUDY    56  33  42 S8        29.81F
6HR MIN TEMP:  46; 6HR MAX TEMP:  56;

ASHLAND        CLOUDY    50  38  63 VRB3      29.87F
6HR MIN TEMP:  46; 6HR MAX TEMP:  51; 6HR PCP: TRACE;

HAYWARD        CLOUDY    50  36  58 SW3       29.91R
6HR MIN TEMP:  39; 6HR MAX TEMP:  50;

SIREN          CLOUDY    55  31  39 S10G17    29.86S
6HR MIN TEMP:  49; 6HR MAX TEMP:  55;

CUMBERLAND     CLOUDY    46  36  66 S6        29.90S
RICE LAKE      CLOUDY    47  40  77 SE3       29.92S
6HR MIN TEMP:  44; 6HR MAX TEMP:  51;

CHETEK         MOCLDY    46  41  84 SE7       29.91F
6HR MIN TEMP:  44; 6HR MAX TEMP:  47;

LADYSMITH      MOCLDY    45  41  85 S5        29.93F
6HR MIN TEMP:  44; 6HR MAX TEMP:  50;

EAU CLAIRE     PTCLDY    47  41  80 S9        29.92F
6HR MIN TEMP:  47; 6HR MAX TEMP:  50;

MENOMONIE      PTCLDY    49  41  74 S6        29.92F
6HR MIN TEMP:  43; 6HR MAX TEMP:  49;

NEW RICHMOND   CLOUDY    52  34  50 S10       29.88F
OSCEOLA        CLOUDY    53  33  47 S9        29.89F
6HR MIN TEMP:  47; 6HR MAX TEMP:  53;

$$

WIZ003>005-009-010-017-018-230700-
NORTH CENTRAL WISCONSIN

CITY           SKY/WX    TMP DP  RH WIND       PRES   REMARKS
MANITOWISH WTR PTCLDY    39  39 100 S7        29.92F WCI  34
6HR MIN TEMP:  38; 6HR MAX TEMP:  44;

ARBOR VITAE    CLEAR     42  40  95 S6        29.93F
6HR MIN TEMP:  42; 6HR MAX TEMP:  45;

WOODRUFF       CLEAR     42  40  95 S6        29.93F
6HR MIN TEMP:  42; 6HR MAX TEMP:  45;

RHINELANDER    CLEAR     42  41  96 SW7       29.96F
6HR MIN TEMP:  42; 6HR MAX TEMP:  46;

EAGLE RIVER    NOT AVBL
LAND O LAKES   CLEAR     38  38 100 CALM      29.96S
6HR MIN TEMP:  36; 6HR MAX TEMP:  45;

PHILLIPS       PTCLDY    42  40  94 S7        29.92F
6HR MIN TEMP:  40; 6HR MAX TEMP:  46;

TOMAHAWK       FOG       36  35  96 CALM      29.96F VSB 1
6HR MIN TEMP:  36; 6HR MAX TEMP:  42;

MEDFORD        CLEAR     39  38  97 S6        29.94F WCI  34
6HR MIN TEMP:  38; 6HR MAX TEMP:  44;

MERRILL        CLEAR     30  30 100 NE3       29.97F FOG
6HR MIN TEMP:  30; 6HR MAX TEMP:  47;

$$

WIZ029-030-035-036-043>047-230700-
CENTRAL WISCONSIN

CITY           SKY/WX    TMP DP  RH WIND       PRES   REMARKS
WAUSAU         CLEAR     43  42  97 SW5       29.97F
6HR MIN TEMP:  41; 6HR MAX TEMP:  48;

MOSINEE        SNOW      41  41 100 S5        29.99F VSB 1/4
MARSHFIELD     FOG       38  36  92 S5        29.96F VSB 3/4 WCI  34
6HR MIN TEMP:  38; 6HR MAX TEMP:  47;

STEVENS POINT  FOG       41  41 100 CALM      29.99F VSB 3/4
6HR MIN TEMP:  40; 6HR MAX TEMP:  46;

WAUPACA        FOG       45  44  97 CALM      29.99F VSB 1/4
6HR MIN TEMP:  44; 6HR MAX TEMP:  51;

WAUTOMA        FOG      N/A N/A N/A CALM      30.00F VSB 1/4
WISC RAPIDS    FOG       39  39 100 CALM      29.99F VSB 1/4
6HR MIN TEMP:  39; 6HR MAX TEMP:  49;

CAMP DOUGLAS   NOT AVBL
$$

WIZ011>013-019>022-031-037>040-048>050-230700-
NORTHEAST WISCONSIN

CITY           SKY/WX    TMP DP  RH WIND       PRES   REMARKS
ANTIGO         FOG       35  35 100 CALM      29.98S VSB 1/4
6HR MIN TEMP:  35; 6HR MAX TEMP:  45;

SHAWANO        FOG       47  46  95 CALM      29.98F VSB 1/4
6HR MIN TEMP:  46; 6HR MAX TEMP:  51;

OCONTO         CLOUDY    40  40 100 CALM      29.98F VSB 1/4
6HR MIN TEMP:  39; 6HR MAX TEMP:  49;

STURGEON BAY   PTCLDY    47  46  97 S3        29.99F
6HR MIN TEMP:  47; 6HR MAX TEMP:  51;

GREEN BAY      CLOUDY    45  45 100 CALM      29.98F FOG
6HR MIN TEMP:  45; 6HR MAX TEMP:  50; 6HR PCP: TRACE;

MANITOWOC      CLOUDY    49  48  97 CALM      30.00F
6HR MIN TEMP:  49; 6HR MAX TEMP:  51; 6HR PCP:  0.01;

APPLETON       PTCLDY    45  45 100 SW5       29.97F FOG
CLINTONVILLE   FOG       43  41  93 W3        30.00S VSB<1/4
OSHKOSH        CLOUDY    46  45  96 S3        29.99F
6HR MIN TEMP:  45; 6HR MAX TEMP:  50;

$$

WIZ032>034-041-042-053>061-230700-
SOUTHWEST WISCONSIN

CITY           SKY/WX    TMP DP  RH WIND       PRES   REMARKS
LA CROSSE      CLEAR     49  45  86 S8        29.98F
6HR MIN TEMP:  48; 6HR MAX TEMP:  53;

SPARTA         CLEAR     32  32 100 CALM      29.98F
6HR MIN TEMP:  32; 6HR MAX TEMP:  46;

VIROQUA        CLEAR     44  42  91 S7        29.98F
6HR MIN TEMP:  44; 6HR MAX TEMP:  48;

BOSCOBEL       FOG       42  42 100 CALM      30.02F VSB 1/4
6HR MIN TEMP:  42; 6HR MAX TEMP:  51;

PRAIRIE DU CHI CLOUDY    41  40  95 E5        30.00F
6HR MIN TEMP:  41; 6HR MAX TEMP:  50;

PLATTEVILLE    PTCLDY    45  45 100 CALM      30.02S
6HR MIN TEMP:  44; 6HR MAX TEMP:  50;

$$

WIZ056-057-062-063-064-067-068-230700-
SOUTH CENTRAL WISCONSIN

CITY           SKY/WX    TMP DP  RH WIND       PRES   REMARKS
REEDSBURG      CLOUDY    40  40 100 CALM      30.00F FOG
6HR MIN TEMP:  40; 6HR MAX TEMP:  49;

BARABOO/DELLS  FOG       39  38  98 CALM      30.00S VSB 1/4
6HR MIN TEMP:  39; 6HR MAX TEMP:  48;

LONE ROCK      FOG       41  41 100 CALM      30.02S VSB 1/4
6HR MIN TEMP:  40; 6HR MAX TEMP:  50;

MINERAL POINT  CLOUDY    45  45 100 CALM      30.01S FOG
MADISON        FOG       44  44 100 CALM      30.00F VSB 1
6HR MIN TEMP:  44; 6HR MAX TEMP:  50;

MIDDLETON        N/A     46  46 100 CALM      30.01S
6HR MIN TEMP:  46; 6HR MAX TEMP:  50;

WATERTOWN      CLOUDY    47  47 100 CALM      29.99F
6HR MIN TEMP:  47; 6HR MAX TEMP:  49;

MONROE         CLOUDY    46  45  93 CALM      30.00F
JANESVILLE     CLOUDY    48  48 100 CALM      30.01S
$$

WIZ051-052-058>065-066-070>072-230700-
SOUTHEAST WISCONSIN

CITY           SKY/WX    TMP DP  RH WIND       PRES   REMARKS
MILWAUKEE      LGT RAIN  52  50  93 NW5       30.00F
6HR MIN TEMP:  52; 6HR MAX TEMP:  53; 6HR PCP:  0.13;

WAUKESHA       CLOUDY    46  46 100 NW5       30.01F
MILWAUKEE/TIMM DRIZZLE   48  45  87 NW3       30.01F
RACINE         LGT RAIN  51  50  96 NW5       30.01F
6HR MIN TEMP:  51; 6HR MAX TEMP:  51; 6HR PCP:  0.11;

BURLINGTON     CLOUDY    48  48 100 NW3       30.00S
6HR MIN TEMP:  48; 6HR MAX TEMP:  49;

KENOSHA        LGT RAIN  51  49  92 NW3       30.00F
6HR MIN TEMP:  51; 6HR MAX TEMP:  51; 6HR PCP:  0.10;

FOND DU LAC    CLOUDY    48  45  89 S3        29.99F
6HR MIN TEMP:  48; 6HR MAX TEMP:  51;

SHEBOYGAN      CLOUDY    49  49 100 CALM      30.00F
6HR MIN TEMP:  49; 6HR MAX TEMP:  51; 6HR PCP:  0.03;

WEST BEND      CLOUDY    46  46 100 NW3       30.00F
JUNEAU         CLOUDY    46  46  97 CALM      30.01F
6HR MIN TEMP:  46; 6HR MAX TEMP:  48;

$$

LSZ147-162-230700-
LAKE SUPERIOR

STATION/POSITION TIME  TEMP    WIND        PRES    WAVE
                       AIR SEA DIR/SP/G            HT/PER
                 (UTC) (F)     (DEG/KT/KT) (MB)    (FT/S)
W MID LAKE BUOY  0550   53 52              1010.9F   3/ 5
DEVILS ISLAND    0600   54     180/ 11/ 16 1010.8F
SAXON HARBOR     0530   52     190/  8/ 13 1011.2F
$$

LMZ867-665-643>646-230700-
LAKE MICHIGAN

STATION/POSITION TIME  TEMP    WIND        PRES    WAVE
                       AIR SEA DIR/SP/G            HT/PER
                 (UTC) (F)     (DEG/KT/KT) (MB)    (FT/S)
S GREEN BAY BUOY 0600   53 58  250/  8/ 10 1015.0
N MID LAKE BUOY  0550   53 57  260/ 10/ 12 1015.9F   2/ 6
NORTHPORT PIER   0540   47     240/  1/  2 1015.2F
KEWAUNEE LAKESHO 0



USA.gov is the U.S. government's official web portal to all federal, state and local government web resources and services.